Regional Weather Roundup
Issued by NWS

Home | Current Version | Previous Version | Text Only | Print | Product List | Glossary Off
Versions: 1 2 3 4 5 6 7 8 9 10 11 12 13 14 15 16 17 18 19 20 21 22 23 24 25 26 27 28 29 30 31 32 33 34 35 36 37 38 39 40 41 42 43 44 45 46 47 48 49 50

000
ASUS45 KBOU 220707
RWRCO

WEATHER ROUNDUP FOR COLORADO
NATIONAL WEATHER SERVICE DENVER/BOULDER CO
1200 AM MST SUN JAN 22 2017

NOTE: "FAIR" INDICATES FEW OR NO CLOUDS BELOW 12000 FEET WITH NO
SIGNIFICANT WEATHER AND/OR OBSTRUCTIONS TO VISIBILITY.

COZ001>005-013-030-031-220800-
...NORTHWEST COLORADO...

CITY           SKY/WX    TMP DP  RH WIND       PRES   REMARKS
CRAIG          CLOUDY    27  22  81 SW12      29.88R WCI  17
HAYDEN         MOCLDY    25  19  80 W10       29.85R WCI  15
MEEKER         LGT SNOW  27  25  92 MISG      29.88R VSB 3/4
MOUNT WERNER   NOT AVBL
STEAMBOAT SPGS CLOUDY    24  22  95 SW6       29.83R WCI  17
WALDEN           N/A     18  14  86 S3        29.77S
$$

COZ006>008-011-220800-
...WEST CENTRAL VALLEYS...

CITY           SKY/WX    TMP DP  RH WIND       PRES   REMARKS
GRAND JUNCTION CLOUDY    32  28  85 CALM      29.91R
MONTROSE       CLOUDY    31  26  82 NW12      29.93R WCI  22
EAGLE          CLOUDY    26  22  84 CALM      29.86R
RIFLE          CLOUDY    32  27  81 CALM      29.89R
DELTA          CLOUDY    37  23  56 NW15      29.90R
NUCLA          FAIR      28  23  80 CALM      29.97R
$$

COZ017>023-064>068-220800-
...SOUTHWEST COLORADO...

CITY           SKY/WX    TMP DP  RH WIND       PRES   REMARKS
DURANGO        FAIR      24  16  71 SW7       29.85R WCI  16
CORTEZ         CLOUDY    24  23  96 NE6       29.95R WCI  17
PAGOSA SPRINGS CLOUDY    26  25  95 CALM      29.85R
TELLURIDE      NOT AVBL
WOLF CREEK PAS CLOUDY    10   9  92 SW7       29.82R WCI   0
$$

COZ009-010-012-014-032>034-037-058>063-220800-
...CENTRAL COLORADO...

CITY           SKY/WX    TMP DP  RH WIND       PRES   REMARKS
ASPEN          CLOUDY    23  21  92 N5        29.82R WCI  17
BUENA VISTA    FAIR      15   9  76 CALM      29.75R
COPPER MTN     NOT AVBL
BERTHOUD PASS  NOT AVBL
COTTONWOOD PAS MOCLDY    27  12  54 W5G18     29.73R WCI  21
GUNNISON       MOCLDY    17  15  92 CALM      29.82R
KREMMLING      CLOUDY    21  18  86 CALM      29.82R
LEADVILLE      LGT SNOW  17  13  84 NW8       29.74R FOG     WCI   7
MONARCH PASS   CLOUDY    12   9  85 NW8       29.82R WCI   1
SALIDA         FAIR      23  20  88 CALM      29.82R
SUNLIGHT       CLOUDY   N/A N/A N/A MISG      29.84R
WILKERSON PASS FAIR      12   9  85 NW13G26   29.73R WCI  -3
$$

COZ069>075-220800-
...SAN LUIS VALLEY/SANGRE DE CRISTO MOUNTAINS...

CITY           SKY/WX    TMP DP  RH WIND       PRES   REMARKS
ALAMOSA        FOG        7   5  91 SW3       29.77R VSB 1/4
LA VETA PASS   CLOUDY    18  16  93 NE22G28   29.70S WCI   0
SAGUACHE       FAIR      27  19  74 N12       29.78R WCI  16
$$

COZ035-036-038>040-220800-
...NORTHERN COLORADO FRONT RANGE...

CITY           SKY/WX    TMP DP  RH WIND       PRES   REMARKS
DENVER INTL AP MOCLDY    31  25  78 W7        29.70R WCI  24
DMNS CITY PARK   N/A     32  24  73 SW3       29.71S
AURORA         CLOUDY    31  27  84 W3        29.71R
FRONT RANGE AP MOCLDY    32  28  86 W8        29.70R WCI  25
ERIE MUNI ARPT FAIR      28  26  90 CALM      29.71R
BOULDER MUN AP FAIR      32  23  69 SW3       29.71R
CENTENNIAL     MOCLDY    31  24  75 W5        29.70R WCI  26
BROOMFIELD     FAIR      32  27  80 NW8       29.70S WCI  25
FORT COLLINS   FAIR      30  25  80 NW3       29.71R
LONGMONT       FAIR      30  24  80 W5        29.73R WCI  25
$$

COZ041-046-047-076>085-087-088-220800-
...PIKES PEAK/PALMER DIVIDE AND SOUTHERN FOOTHILLS...

CITY           SKY/WX    TMP DP  RH WIND       PRES   REMARKS
COLO. SPRINGS  MOCLDY    33  18  53 NW12      29.70R WCI  24
A. F. ACADEMY  FAIR      23  17  79 N6        29.69R WCI  15
SCHRIEVER AFB  NOT AVBL
ELLICOTT       CLOUDY   N/A N/A N/A CALM      29.67R
FALCON         FAIR      29  18  63 N8        29.70R WCI  21
FORT CARSON    NOT AVBL
LIMON          FAIR      24  23  96 W8        29.68R WCI  15
MONUMENT HILL  CLOUDY    27  21  80 W7        29.71R WCI  19
TRINIDAD       MOCLDY    27  22  81 W6        29.70R WCI  20
$$

COZ042>045-048>051-090-091-220800-
...NORTHEAST COLORADO...

CITY           SKY/WX    TMP DP  RH WIND       PRES   REMARKS
GREELEY ARPT   FAIR      27  24  89 W7        29.72R WCI  19
AKRON          CLOUDY    30  25  81 W8        29.67R WCI  22
BURLINGTON     FAIR      31  27  85 NW9       29.66R WCI  23
WRAY           FAIR      30  28  93 W6        29.66R WCI  24
STERLING       CLOUDY    32  30  93 CALM      29.67R
HOLYOKE        FAIR      34  30  86 W6        29.66S WCI  29
FORT MORGAN    CLOUDY    32  26  76 W6        29.70R WCI  27
$$

COZ086-089-092>099-220800-
...SOUTHEAST COLORADO...

CITY           SKY/WX    TMP DP  RH WIND       PRES   REMARKS
PUEBLO         CLOUDY    33  27  78 CALM      29.70R
LA JUNTA       FAIR      31  27  85 NW9       29.69R WCI  23
LAMAR          FAIR      32  27  81 CALM      29.65R
SPRINGFIELD      N/A     33  30  88 N18       29.62R WCI  22
$$



USA.gov is the U.S. government's official web portal to all federal, state and local government web resources and services.